Location: Haram ta Haram Freeway
(35.0583°N, 51.4202°E)
Time: 10:26:49
(UTC+03:30)

Hubble Space Telescope - Visible Passes

Search period start: 04 October 2022 00:00
Search period end: 14 October 2022 00:00
Orbit: 531 x 535 km, 28.5° (Epoch: 03 October)

Date Brightness Start Highest point End Pass type
(mag) Time Alt. Az. Time Alt. Az. Time Alt. Az.
04 Oct 3.1 18:39:57 10° WSW 18:42:35 17° SSW 18:45:13 10° SSE visible
05 Oct 3.3 18:28:02 10° SW 18:30:13 14° SSW 18:32:24 10° SSE visible
06 Oct 3.4 18:16:20 10° SW 18:17:50 12° SSW 18:19:20 10° S visible
